Weather History for Madison, MN

Change the Weather History Date:

Saturday, March 9, 2013

  Actual Average (KAQP) Record (KAQP)
Temperature  
Mean Temperature 30 °F -  
Max Temperature 33 °F 27 °F 50 °F (2004)
Min Temperature 28 °F 11 °F -9 °F (2003)
Degree Days  
Heating Degree Days 34    
Moisture  
Dew Point 31 °F    
Average Humidity 94    
Maximum Humidity 100    
Minimum Humidity 86    
Precipitation  
Precipitation 0.83 in - - ()
Sea Level Pressure  
Sea Level Pressure 29.80 in    
Wind  
Wind Speed 10 mph (NNE)    
Max Wind Speed 29 mph    
Max Gust Speed 34 mph    
Visibility 2 miles    
Events Rain , Snow    
Averages and records for this station are not official NWS values.
T = Trace of Precipitation, MM = Missing Value Source: NWS Daily Summary

Daily Weather History Graph

Daily Weather History Graph

Search for Another Location

Airport:

Trip Planner

Search our weather history database for the weather conditions in past years. The results will help you decide how hot, cold, wet, or windy it might be!

Date:

Astronomy

Mar. 09, 2013 Rise Set
Actual Time 6:47 AM CST 6:23 PM CST
Civil Twilight 6:18 AM CST 6:52 PM CST
Nautical Twilight 5:44 AM CST 7:26 PM CST
Astronomical Twilight 5:10 AM CST 8:01 PM CST
Moon 5:16 AM CST (3/9) 4:23 PM CST (3/9)
Length of Visible Light 12h 34m
Length of Day
11h 35m
Waning Crescent, 5% of the Moon is Illuminated
Mar 9
Waning Crescent
Mar 11
New
Mar 19
First Quarter
Mar 27
Full
Apr 2
Last Quarter

Hourly Weather History & Observations

Time (CST) Temp. Windchill Dew Point Humidity Pressure Visibility Wind Dir Wind Speed Gust Speed Precip Events Conditions
12:13 AM 33.8 °F 27.7 °F 30.2 °F 87% 29.96 in 2.0 mi ESE 6.9 mph - 0.02 in   Unknown
12:34 AM 33.8 °F 26.4 °F 30.2 °F 87% 29.94 in 2.0 mi SE 9.2 mph - 0.05 in   Unknown
12:54 AM 33.8 °F 27.0 °F 30.2 °F 87% 29.93 in 2.0 mi ESE 8.1 mph - 0.08 in   Unknown
1:13 AM 33.8 °F 27.7 °F 30.2 °F 87% 29.93 in 1.8 mi SE 6.9 mph - 0.04 in   Unknown
1:34 AM 33.8 °F 27.0 °F 30.2 °F 87% 29.92 in 1.8 mi SE 8.1 mph - 0.08 in   Unknown
1:54 AM 33.8 °F 26.4 °F 30.2 °F 87% 29.91 in 1.8 mi SE 9.2 mph - 0.14 in   Mostly Cloudy
2:13 AM 33.8 °F 26.4 °F 30.2 °F 87% 29.90 in 2.0 mi ESE 9.2 mph - 0.03 in   Mostly Cloudy
2:34 AM 33.8 °F 28.6 °F 30.2 °F 87% 29.89 in 2.0 mi SE 5.8 mph - 0.05 in   Unknown
2:54 AM 33.8 °F 27.7 °F 32.0 °F 93% 29.89 in 1.8 mi SE 6.9 mph - 0.07 in   Unknown
3:13 AM 33.8 °F 27.7 °F 32.0 °F 93% 29.87 in 1.8 mi SE 6.9 mph - 0.02 in   Unknown
3:34 AM 33.8 °F 27.7 °F 32.0 °F 93% 29.86 in 1.8 mi SE 6.9 mph - 0.05 in   Unknown
3:54 AM 33.8 °F 27.0 °F 32.0 °F 93% 29.85 in 2.0 mi SE 8.1 mph - 0.06 in   Unknown
4:13 AM 33.8 °F 27.0 °F 32.0 °F 93% 29.85 in 1.8 mi SSE 8.1 mph - N/A   Unknown
4:34 AM 33.8 °F 26.4 °F 32.0 °F 93% 29.84 in 2.0 mi SSE 9.2 mph - N/A   Unknown
4:53 AM 33.8 °F 28.6 °F 33.8 °F 100% 29.84 in 1.5 mi SSE 5.8 mph - N/A   Unknown
5:14 AM 33.8 °F 27.7 °F 33.8 °F 100% 29.84 in 1.5 mi SSE 6.9 mph - N/A   Unknown
5:34 AM 33.8 °F 30.8 °F 33.8 °F 100% 29.83 in 1.8 mi SSE 3.5 mph - 0.01 in   Unknown
5:53 AM 33.8 °F 26.4 °F 33.8 °F 100% 29.83 in 1.5 mi SSE 9.2 mph - 0.02 in   Unknown
6:14 AM 33.8 °F 26.4 °F 33.8 °F 100% 29.81 in 1.8 mi SSE 9.2 mph - N/A   Unknown
6:34 AM 33.8 °F 25.8 °F 33.8 °F 100% 29.81 in 2.0 mi SE 10.4 mph - N/A   Unknown
6:53 AM 33.8 °F 27.7 °F 33.8 °F 100% 29.80 in 2.5 mi SE 6.9 mph - N/A   Mist
7:13 AM 33.8 °F 28.6 °F 33.8 °F 100% 29.80 in 1.5 mi SE 5.8 mph - N/A   Mist
7:33 AM 33.8 °F 27.0 °F 33.8 °F 100% 29.79 in 1.5 mi SE 8.1 mph - N/A   Mist
7:54 AM 33.8 °F 28.6 °F 33.8 °F 100% 29.78 in 1.5 mi SE 5.8 mph - N/A   Drizzle
8:13 AM 33.8 °F 27.7 °F 33.8 °F 100% 29.78 in 1.5 mi SE 6.9 mph - N/A   Light Drizzle
8:34 AM 33.8 °F 27.7 °F 33.8 °F 100% 29.77 in 1.5 mi SE 6.9 mph - N/A Rain Light Rain
8:53 AM 33.8 °F 29.6 °F 33.8 °F 100% 29.76 in 1.5 mi East 4.6 mph - N/A Rain Light Rain
9:14 AM 33.8 °F 30.8 °F 32.0 °F 93% 29.76 in 1.0 mi ENE 3.5 mph - 0.03 in Rain Rain
9:34 AM 33.8 °F 30.8 °F 33.8 °F 100% 29.78 in 0.8 mi SSE 3.5 mph - 0.07 in Rain Rain
9:53 AM 33.8 °F - 33.8 °F 100% 29.76 in 1.0 mi Calm Calm - 0.11 in Rain Rain
10:14 AM 33.8 °F - 33.8 °F 100% 29.75 in 1.2 mi Calm Calm - 0.02 in Rain Light Rain
10:34 AM 33.8 °F - 32.0 °F 93% 29.74 in 0.8 mi Calm Calm - 0.05 in Rain Rain
10:53 AM 33.8 °F 30.8 °F 32.0 °F 93% 29.74 in 0.5 mi North 3.5 mph - 0.09 in Rain Rain
11:14 AM 33.8 °F 29.6 °F 32.0 °F 93% 29.74 in 0.5 mi North 4.6 mph - 0.05 in Rain Rain
11:34 AM 33.8 °F 28.6 °F 33.8 °F 100% 29.73 in 0.8 mi North 5.8 mph - 0.09 in Rain Rain
11:53 AM 33.8 °F 26.4 °F 33.8 °F 100% 29.72 in 1.0 mi NNE 9.2 mph - 0.12 in Rain Rain
12:14 PM 33.8 °F 29.6 °F 32.0 °F 93% 29.73 in 1.0 mi North 4.6 mph - 0.02 in Rain Rain
12:34 PM 33.8 °F 28.6 °F 33.8 °F 100% 29.72 in 1.0 mi NNE 5.8 mph - 0.05 in Rain Rain
12:53 PM 33.8 °F 28.6 °F 33.8 °F 100% 29.72 in 1.0 mi NE 5.8 mph - 0.05 in Rain Light Rain
1:14 PM 33.8 °F 28.6 °F 32.0 °F 93% 29.70 in 0.2 mi North 5.8 mph - N/A Rain Light Rain
1:34 PM 33.8 °F 28.6 °F 33.8 °F 100% 29.71 in 1.0 mi NNW 5.8 mph - 0.01 in   Drizzle
1:53 PM 33.8 °F 28.6 °F 32.0 °F 93% 29.71 in 1.0 mi NW 5.8 mph - 0.03 in   Overcast
2:14 PM 33.8 °F 28.6 °F 32.0 °F 93% 29.71 in 1.2 mi NW 5.8 mph - 0.02 in Snow Light Snow
2:34 PM 33.8 °F 24.8 °F 32.0 °F 93% 29.69 in 1.0 mi NNW 12.7 mph - 0.04 in Snow Light Snow
2:53 PM 33.8 °F 23.2 °F 32.0 °F 93% 29.68 in 2.5 mi NNW 17.3 mph - 0.04 in Snow Light Snow
3:14 PM 33.8 °F 23.9 °F 32.0 °F 93% 29.69 in 1.2 mi NNW 15.0 mph - 0.01 in Snow Light Snow
3:34 PM 33.8 °F 23.5 °F 32.0 °F 93% 29.68 in 1.5 mi North 16.1 mph - 0.02 in Snow Light Snow
3:53 PM 33.8 °F 24.3 °F 32.0 °F 93% 29.70 in 4.0 mi North 13.8 mph - 0.02 in Snow Light Snow
4:14 PM 33.8 °F 23.5 °F 32.0 °F 93% 29.71 in 3.0 mi North 16.1 mph - N/A Snow Light Snow
4:34 PM 32.0 °F 19.5 °F 30.2 °F 93% 29.73 in 5.0 mi NNW 21.9 mph - N/A   Mostly Cloudy
4:53 PM 30.2 °F 17.1 °F 28.4 °F 93% 29.74 in 2.0 mi North 21.9 mph 26.5 mph N/A Snow Light Snow
5:13 PM 30.2 °F 17.4 °F 28.4 °F 93% 29.75 in 1.0 mi NNW 20.7 mph - N/A Snow Light Snow
5:34 PM 30.2 °F 18.1 °F 28.4 °F 93% 29.76 in 1.0 mi NNW 18.4 mph - N/A Snow Light Snow
5:53 PM 28.4 °F 15.8 °F 26.6 °F 93% 29.77 in 1.2 mi NNW 18.4 mph - N/A Snow Light Snow
6:13 PM 30.2 °F 18.5 °F 26.6 °F 86% 29.79 in 1.2 mi NNW 17.3 mph - N/A Snow Light Snow
6:34 PM 28.4 °F 15.4 °F 26.6 °F 93% 29.80 in 2.5 mi NNW 19.6 mph - N/A Snow Light Snow
6:53 PM 28.4 °F 15.1 °F 26.6 °F 93% 29.80 in 2.5 mi NNW 20.7 mph - N/A Snow Light Snow
7:13 PM 28.4 °F 14.1 °F 26.6 °F 93% 29.80 in 2.0 mi NNW 24.2 mph - N/A Snow Light Snow
7:34 PM 28.4 °F 14.4 °F 26.6 °F 93% 29.80 in 1.8 mi NNW 23.0 mph - N/A Snow Light Snow
7:53 PM 28.4 °F 15.1 °F 26.6 °F 93% 29.82 in 2.0 mi NNW 20.7 mph 27.6 mph N/A Snow Light Snow
8:13 PM 28.4 °F 14.4 °F 26.6 °F 93% 29.82 in 3.0 mi NNW 23.0 mph 27.6 mph N/A Snow Light Snow
8:33 PM 28.4 °F 14.7 °F 26.6 °F 93% 29.84 in 3.0 mi NNW 21.9 mph - N/A   Overcast
8:54 PM 28.4 °F 14.4 °F 26.6 °F 93% 29.84 in 3.0 mi NNW 23.0 mph - N/A   Mostly Cloudy
9:13 PM 28.4 °F 14.4 °F 26.6 °F 93% 29.84 in 2.5 mi NNW 23.0 mph 26.5 mph N/A Snow Light Snow
9:34 PM 28.4 °F 13.5 °F 26.6 °F 93% 29.86 in 1.8 mi NNW 26.5 mph - N/A Snow Light Snow
9:53 PM 28.4 °F 13.0 °F 26.6 °F 93% 29.87 in 1.5 mi NNW 28.8 mph 33.4 mph N/A Snow Light Snow
10:13 PM 28.4 °F 13.0 °F 26.6 °F 93% 29.88 in 1.8 mi North 28.8 mph 34.5 mph N/A Snow Light Snow
10:34 PM 28.4 °F 13.5 °F 24.8 °F 86% 29.88 in 1.8 mi North 26.5 mph 34.5 mph N/A Snow Light Snow
10:53 PM 28.4 °F 13.5 °F 24.8 °F 86% 29.91 in 2.5 mi NNW 26.5 mph 32.2 mph N/A   Overcast
11:13 PM 28.4 °F 13.8 °F 24.8 °F 86% 29.92 in 2.5 mi NNW 25.3 mph 31.1 mph N/A   Overcast
11:34 PM 28.4 °F 13.5 °F 24.8 °F 86% 29.90 in 2.5 mi North 26.5 mph 32.2 mph N/A   Overcast
11:53 PM 28.4 °F 13.3 °F 24.8 °F 86% 29.89 in 2.5 mi North 27.6 mph 33.4 mph N/A   Overcast